Helicity
63 51 44 45 36 33 32 26 23 22 24 33 39 42 48 38 14 -20 38 101 60 9 109 112 103 140 183 148 176 184 307 331 245 168 125 28 61 13 -1 15 -14 34 88 47 109
86 81 68 60 61 44 35 33 35 32 26 31 45 52 71 65 -4 7 146 60 30 55 91 94 90 169 199 158 211 233 307 254 185 123 90 61 73 54 80 91 27 -21 127 94 125
119 107 97 83 69 57 48 42 48 46 36 40 50 57 77 70 18 30 64 -27 13 72 83 95 108 182 191 184 199 217 224 167 122 99 86 91 87 32 63 108 17 -7 32 63 66
137 135 116 105 87 66 62 68 69 70 54 49 57 68 88 76 36 65 40 7 17 38 57 76 96 190 174 204 130 187 124 107 103 99 121 129 165 147 86 80 -10 -21 -23 -12 53
166 177 127 103 103 95 79 78 75 91 69 68 73 80 115 104 93 90 56 59 49 55 68 99 130 165 162 122 130 159 78 92 103 119 122 124 133 120 96 22 -26 -14 -27 -32 6
188 183 138 130 125 109 106 89 97 94 85 85 80 86 116 87 64 59 126 85 59 66 76 81 90 111 185 168 196 116 138 129 91 98 109 99 42 95 75 51 16 26 22 11 -15
250 181 163 150 129 126 111 105 91 100 91 96 89 91 126 50 78 143 117 57 71 68 75 87 154 203 189 138 115 114 77 48 50 57 55 52 3 61 37 34 28 18 23 68 67
223 193 179 176 168 159 151 125 100 91 95 101 90 113 115 52 94 61 65 50 29 49 63 64 127 124 87 84 79 64 71 95 64 57 38 76 56 83 62 85 94 89 74 66 72
213 188 221 237 211 161 163 142 121 93 74 101 137 153 75 103 73 70 69 50 64 53 57 69 92 112 62 105 118 87 98 51 33 59 120 164 138 102 79 108 91 77 41 58 55
214 252 264 220 236 245 224 236 163 113 109 103 160 133 70 147 95 64 20 26 46 77 104 95 157 101 104 148 140 116 99 79 80 60 94 81 84 76 75 103 79 37 50 56 61
264 236 183 160 177 217 224 218 222 183 214 165 130 165 134 143 22 24 52 64 86 102 110 97 138 58 59 87 96 96 67 60 46 92 95 95 82 63 78 82 72 76 43 23 54
260 125 112 123 142 162 165 212 237 159 166 43 25 18 -63 47 73 36 76 109 118 99 88 124 79 75 104 85 83 82 87 54 62 46 84 26 59 61 100 118 98 80 77 2 95
246 189 155 150 166 176 155 165 62 63 160 137 93 58 62 49 61 71 87 69 101 75 83 79 22 90 114 115 87 81 108 130 67 37 81 119 79 92 105 51 49 47 26 50 15
225 143 159 207 235 229 191 26 42 61 266 202 127 84 99 101 85 9 32 68 38 56 46 52 1 17 90 101 71 85 44 67 73 90 73 158 147 115 26 28 98 54 22 19 60
165 166 188 193 272 267 83 65 56 87 361 77 118 57 92 105 148 54 11 37 61 30 66 33 50 78 58 46 40 42 67 59 60 108 108 72 181 189 34 20 42 206 104 147 97
233 219 121 128 133 68 60 68 87 306 317 92 59 48 98 41 56 71 53 13 16 48 64 46 62 71 39 19 9 24 83 78 94 132 154 93 157 13 40 -43 41 49 51 45 48
161 104 107 108 156 67 93 63 335 408 74 145 86 21 23 72 31 68 51 72 92 88 140 130 99 85 66 104 65 74 148 153 132 173 193 63 90 4 63 -18 -69 -1 63 118 -43
136 127 69 -9 56 99 81 113 386 155 152 180 170 114 56 69 85 68 70 102 156 96 96 104 105 115 88 76 134 174 182 224 145 153 105 47 10 7 26 -16 -100 -23 71 120 33
53 29 6 27 50 62 104 246 278 173 154 180 129 107 106 114 142 162 231 201 124 130 123 126 107 127 91 91 94 171 294 139 160 127 119 57 42 2 -14 -87 -174 -29 4 44 46
-8 16 19 36 54 53 148 184 72 126 89 163 186 156 148 167 154 179 206 190 178 188 168 177 87 106 62 53 140 197 96 137 152 142 85 3 -55 -83 -36 -85 -53 -47 27 32 33
-69 -46 45 34 56 88 75 112 82 98 79 74 117 104 116 125 153 187 219 161 120 124 147 158 143 138 79 127 181 132 148 86 57 151 126 -10 -56 15 -88 -128 -35 8 75 79 45
47 2 18 84 98 73 132 138 58 71 31 31 92 118 119 124 113 113 165 209 158 83 88 132 129 79 26 16 27 64 138 83 102 109 69 -16 -27 90 7 43 91 32 1 -19 -3
12 38 32 46 116 85 102 130 88 18 81 94 104 127 133 116 126 176 183 141 102 64 99 77 165 147 113 78 137 74 149 130 97 -14 -10 -73 -49 50 111 155 96 23 -4 -7 -3
77 61 24 52 57 80 50 44 55 121 89 125 101 119 122 136 155 140 147 171 170 163 84 81 86 118 162 103 91 95 134 184 102 119 23 -12 -45 73 118 160 79 64 -6 -1 10
31 44 83 57 81 82 98 64 57 58 90 110 97 91 110 125 125 129 119 69 94 130 126 120 126 135 77 49 42 65 38 126 150 112 31 33 22 -15 141 155 74 36 57 29 36
49 88 84 80 121 125 111 82 34 80 69 76 80 89 101 100 98 64 70 69 78 76 116 132 122 101 -10 22 34 41 62 49 90 138 95 83 -42 141 165 153 105 64 57 21 68
99 136 152 102 77 94 83 97 113 91 81 94 80 70 71 60 46 49 71 90 104 105 75 75 82 105 91 42 41 22 32 12 10 26 57 49 61 76 161 76 109 76 69 51 58
Wind_Speed
49 53 55 55 59 60 61 63 64 64 66 70 71 73 75 77 80 68 68 48 35 29 31 36 35 36 34 36 32 32 52 58 53 58 59 67 76 66 58 64 66 59 56 39 20
50 50 53 56 57 61 64 64 66 68 70 71 73 73 75 77 75 77 55 40 28 31 32 33 37 36 40 40 40 39 54 59 53 54 67 71 72 81 72 74 67 62 53 38 27
48 49 50 54 59 62 64 67 68 70 71 72 73 72 72 73 70 52 40 20 24 19 30 33 35 33 40 39 39 48 60 56 58 62 70 74 80 74 81 75 61 64 59 43 36
50 48 53 56 60 64 67 67 69 70 71 72 72 70 70 55 64 44 33 30 30 30 32 34 32 36 43 45 43 56 59 58 63 65 72 76 73 78 67 78 61 57 57 55 46
52 51 54 56 59 64 69 70 71 69 71 71 70 66 59 60 62 48 39 34 32 31 34 33 36 39 49 46 50 58 59 61 65 63 70 77 79 86 84 72 65 67 69 70 67
54 53 55 57 61 63 66 70 71 70 70 68 65 59 56 71 45 38 25 30 33 32 33 28 33 36 49 49 52 51 63 64 63 64 63 71 82 80 80 79 88 85 90 89 83
54 53 53 55 58 62 64 65 70 71 71 65 57 48 56 55 40 33 27 36 34 32 38 33 40 42 49 55 46 50 68 70 62 61 67 70 98 93 86 83 93 88 86 92 99
55 51 55 56 58 60 65 67 68 70 68 59 48 42 63 45 41 43 37 37 33 33 32 39 41 45 43 47 56 62 62 68 53 60 68 57 86 92 85 83 87 82 78 81 91
51 53 55 58 59 63 65 67 69 65 57 45 41 43 64 49 38 31 26 35 30 29 33 37 41 44 44 50 53 53 60 74 76 59 66 59 81 83 75 75 76 67 68 71 76
54 53 51 59 59 62 67 66 61 52 44 34 44 46 49 37 27 26 18 22 26 31 31 34 37 41 43 36 46 45 52 59 64 56 66 87 88 76 71 78 83 81 79 77 82
47 51 54 56 60 63 64 53 53 53 43 42 34 39 37 36 34 25 20 23 30 30 27 30 30 33 33 36 44 46 57 67 79 73 76 78 83 79 80 80 89 93 93 93 97
46 51 53 55 59 58 57 59 53 46 66 50 50 41 39 42 44 33 20 23 25 31 31 33 33 33 35 36 39 47 58 73 81 62 64 88 85 78 73 75 86 95 95 96 100
42 45 50 55 56 57 48 48 34 39 60 56 43 43 37 25 28 32 14 18 23 25 29 33 37 35 35 44 53 54 56 60 74 80 70 73 83 77 71 82 86 85 81 79 82
35 42 46 50 50 42 42 30 31 30 58 54 40 38 18 18 31 24 18 17 26 29 31 41 46 42 46 49 48 56 49 62 69 74 84 58 92 75 81 94 89 80 68 72 74
34 40 43 38 42 40 31 28 25 27 70 30 23 14 12 18 21 18 14 21 24 26 31 34 43 47 52 49 43 57 44 61 68 69 72 69 65 75 81 64 69 65 63 64 62
32 38 41 41 25 27 29 23 21 41 65 26 17 13 15 18 25 16 20 29 29 32 37 47 44 44 45 50 44 46 53 56 55 57 70 66 50 70 54 61 71 68 64 61 57
35 32 30 28 27 26 24 15 34 52 21 24 20 12 12 22 24 17 22 30 38 45 47 51 49 46 46 57 45 41 49 66 66 56 63 57 60 71 67 71 69 72 68 61 55
29 33 24 21 28 27 20 24 42 36 30 24 17 14 21 26 26 30 29 29 38 41 48 53 56 43 47 50 42 32 32 44 67 69 75 70 68 63 57 58 64 67 58 59 61
26 23 24 23 31 24 25 35 36 33 31 30 23 23 26 24 25 26 26 32 37 43 45 53 50 54 45 58 44 36 34 31 50 57 70 58 61 55 59 62 61 55 50 50 43
13 18 20 13 19 22 33 37 29 27 29 28 28 30 32 32 30 30 30 34 35 42 40 49 66 48 54 55 41 43 37 41 43 61 59 61 63 63 60 61 61 50 45 44 45
10 11 14 12 16 27 34 34 21 26 25 30 30 30 29 33 30 33 34 31 36 42 42 49 49 58 60 46 55 60 54 49 51 42 60 81 69 48 58 58 54 47 47 50 50
9 8 6 13 22 30 31 29 17 26 23 25 27 28 29 30 34 34 36 39 42 43 48 48 54 71 72 66 61 54 53 46 51 55 67 82 87 47 54 56 44 45 46 48 48
8 12 12 15 26 24 20 20 18 24 26 26 25 27 27 29 31 31 33 35 42 41 41 45 50 71 79 57 45 41 47 53 62 57 70 78 69 52 54 44 40 42 48 49 49
14 13 13 17 20 13 11 21 22 23 24 25 23 25 27 28 31 35 38 39 48 47 37 39 46 54 67 67 61 72 71 64 59 65 72 77 75 68 36 31 39 43 45 47 48
17 19 19 19 15 9 16 14 13 22 23 25 27 26 26 31 40 40 44 49 49 41 43 43 55 52 57 61 66 71 75 79 78 77 73 69 65 54 30 27 34 37 44 45 47
17 15 17 7 12 12 19 18 15 16 21 23 22 27 32 34 37 47 48 49 46 41 42 42 50 55 72 67 65 69 81 87 87 85 82 79 74 46 34 28 35 40 42 41 44
22 23 19 17 13 12 15 16 13 16 25 27 29 30 38 39 41 42 36 35 34 40 41 40 45 55 68 55 66 72 65 73 78 71 73 72 53 37 30 38 38 40 40 41 43
Wind_Direction
308 308 310 312 312 313 314 313 312 314 314 313 313 313 313 311 308 312 304 310 317 321 323 319 315 312 311 300 297 302 291 290 292 295 295 297 293 289 299 303 304 309 312 301 288
303 306 307 309 311 310 309 309 309 308 310 312 311 313 313 314 312 304 311 314 312 319 319 312 304 304 300 301 293 285 286 291 295 297 297 297 295 288 294 297 298 302 317 321 308
299 302 305 306 308 308 307 306 307 307 308 311 312 314 315 317 313 314 329 347 339 337 326 322 314 305 296 295 294 287 283 294 296 297 296 296 294 293 290 290 298 298 301 310 304
295 297 301 303 304 304 305 306 306 307 308 309 310 313 314 320 308 318 333 336 328 326 321 316 310 301 299 290 294 289 292 294 296 295 294 294 298 293 291 289 296 295 295 296 296
289 295 297 300 303 303 302 303 303 307 307 308 308 312 316 308 301 306 317 323 323 322 314 309 303 299 297 301 298 291 294 295 296 296 295 297 294 291 289 294 296 295 291 287 286
285 291 295 298 302 304 303 301 302 305 307 308 309 312 309 302 315 318 316 320 319 315 315 309 308 309 304 301 297 302 301 300 301 299 299 298 294 294 293 298 294 293 287 283 281
283 288 293 297 302 303 305 306 303 303 303 307 311 310 303 300 319 328 319 313 315 311 304 306 307 307 308 305 306 305 301 301 299 301 300 304 290 289 299 300 296 296 291 285 278
279 285 289 296 301 304 303 305 305 302 302 307 310 308 300 312 312 303 302 304 302 304 301 301 308 305 304 306 304 303 302 299 308 306 303 308 296 296 302 302 298 299 293 289 283
275 280 288 295 301 302 303 304 302 302 303 307 308 306 302 313 312 311 303 304 300 302 301 305 303 301 302 301 304 302 298 297 300 307 307 306 303 305 314 312 305 303 298 292 289
274 279 289 292 296 302 301 302 303 304 304 308 301 304 299 317 331 326 324 314 310 308 298 299 302 298 298 298 295 304 303 303 304 314 311 303 304 310 311 307 301 297 295 294 290
272 280 285 291 293 295 300 302 300 295 289 284 301 296 309 321 323 313 316 314 309 307 300 300 299 291 297 292 297 298 301 302 300 309 312 310 311 312 309 304 298 292 289 290 284
274 279 285 290 290 294 294 286 291 303 291 280 278 281 294 311 311 308 301 299 294 292 297 298 286 293 300 303 301 300 300 301 304 317 318 313 313 314 311 306 298 291 288 287 285
274 282 286 290 291 290 283 291 307 307 291 292 282 276 287 296 299 306 308 294 299 286 288 284 295 299 294 298 300 300 302 308 310 314 318 319 315 317 314 305 298 294 297 297 296
280 285 289 293 289 287 283 295 310 316 291 290 283 289 278 296 298 294 308 306 298 295 291 296 292 292 296 296 300 300 309 312 315 316 317 331 318 320 312 300 296 295 304 304 296
288 291 292 291 291 279 292 299 312 306 282 297 289 306 271 283 313 290 296 304 300 293 300 299 302 300 299 305 312 306 318 315 317 317 320 319 316 312 309 318 323 315 307 307 307
295 294 294 284 294 290 297 302 301 279 276 289 304 271 282 268 296 296 295 305 312 300 296 293 301 306 304 310 314 322 318 321 321 320 315 320 318 308 314 316 320 310 292 287 309
297 300 291 299 280 287 299 288 266 268 286 278 280 264 265 287 279 291 293 299 300 297 296 300 300 308 309 305 310 309 317 315 319 321 319 330 318 294 301 289 298 290 288 291 296
310 299 294 281 278 285 274 261 262 267 282 296 282 282 279 289 295 291 304 301 316 310 300 299 300 313 320 319 309 301 302 311 313 316 317 317 296 292 305 292 295 304 297 301 286
315 301 282 272 262 266 252 252 266 274 277 276 281 277 288 301 302 307 313 305 314 323 305 305 300 305 318 319 321 309 299 306 309 313 314 307 292 295 300 294 321 310 305 317 284
13 297 274 271 265 254 250 262 270 276 285 285 278 290 286 301 298 301 307 322 314 330 328 314 300 314 311 317 324 320 320 310 317 315 311 290 273 275 302 305 311 302 300 307 310
359 345 285 270 254 253 253 266 277 292 288 290 290 293 302 295 304 301 306 321 330 327 330 319 309 305 312 312 311 310 307 310 311 304 299 273 268 300 306 306 294 311 316 318 322
349 318 288 259 250 259 263 274 295 297 316 309 309 306 305 306 302 305 307 316 328 328 319 321 311 303 302 304 302 305 306 307 302 299 287 267 261 308 305 310 322 317 318 326 326
308 310 288 269 260 262 275 292 312 302 310 307 308 314 314 310 308 316 324 336 338 335 327 328 317 309 307 314 316 297 304 303 296 290 280 264 267 300 299 317 319 319 321 327 327
290 282 283 290 296 286 287 289 295 315 309 312 318 321 316 317 327 318 322 325 330 333 338 333 319 311 305 305 307 295 290 290 286 275 274 262 271 280 300 316 305 323 323 324 330
285 280 280 269 285 297 305 306 312 304 312 314 323 331 332 320 320 320 322 321 326 333 335 331 316 317 315 311 304 296 285 274 266 261 264 261 265 298 303 308 296 308 324 324 323
286 275 290 317 294 292 289 303 313 331 326 333 337 336 334 328 328 320 323 324 324 327 326 329 316 319 312 314 308 297 278 262 253 249 254 259 255 280 323 319 312 309 321 323 326
264 265 273 278 292 304 299 323 352 356 340 343 339 336 327 331 334 330 328 325 318 317 317 313 314 317 315 320 310 293 276 249 242 251 254 255 270 272 286 329 310 305 321 321 327